This demonstration page uses our WeatherBlox Daily Observations layout. Learn more.

Left ArrowRight Arrow

Hourly Observations for March 13, 2019

Temp ( °F °C ) Dew Point ( °F °C ) Humidity (%) Winds ( mph kmh ) Pressure ( in mb ) Visibility ( mi km ) Precip ( " mm )
12:06 am 00:06 Cloudy 46 7.8 43 6.1 89 89 N N/A 29.74 1007 10 16 N/A
12:51 am 00:51 Cloudy 46 7.8 41 5 83 83 N N/A 29.68 1005 10 16 N/A
12:58 am 00:58 Mostly Cloudy 45 7.2 41 5 86 86 NNW 9 15 29.74 1007 10 16 N/A
1:51 am 01:51 Mostly Cloudy 45 7.2 40 4.4 83 83 NW 17 28 29.68 1005 10 16 N/A
2:51 am 02:51 Cloudy 45 7.2 39 3.9 80 80 NW 12 19 29.68 1005 10 16 N/A
3:51 am 03:51 Cloudy 44 6.7 41 5 89 89 SSE 6 9 29.67 1005 10 16 N/A
4:51 am 04:51 Cloudy 45 7.2 40 4.4 83 83 NNE 3 6 29.66 1005 10 16 N/A
5:51 am 05:51 Cloudy 44 6.7 40 4.4 85 85 NNW 8 13 29.67 1005 10 16 0.01 0.25
6:51 am 06:51 Cloudy 45 7.2 40 4.4 83 83 NW 8 13 29.69 1006 10 16 N/A
7:51 am 07:51 Cloudy with Light Rain 46 7.8 41 5 83 83 W 7 11 29.72 1006 10 16 N/A
8:16 am 08:16 Cloudy 47 8.3 41 5 80 80 WNW 7 11 29.76 1008 10 16 N/A
8:29 am 08:29 Cloudy 47 8.3 41 5 80 80 W 8 13 29.77 1008 10 16 N/A
8:51 am 08:51 Cloudy 48 8.9 41 5 77 77 N N/A 29.72 1006 10 16 N/A
9:51 am 09:51 Cloudy 53 11.7 36 2.2 52 52 W 21 33 29.70 1006 10 16 N/A
10:51 am 10:51 Mostly Cloudy 55 12.8 38 3.3 53 53 WNW 30 48 29.69 1006 10 16 N/A
11:51 am 11:51 Cloudy 52 11.1 39 3.9 61 61 WNW 31 50 29.71 1006 10 16 N/A
12:51 pm 12:51 Cloudy 53 11.7 40 4.4 61 61 WNW 31 50 29.70 1006 10 16 N/A
1:51 pm 13:51 Mostly Cloudy with Light Rain 49 9.4 41 5 74 74 W 31 50 29.74 1007 10 16 N/A
2:51 pm 14:51 Sunny 55 12.8 38 3.3 53 53 W 29 46 29.70 1006 10 16 N/A
3:51 pm 15:51 Mostly Cloudy 56 13.3 34 1.1 44 44 W 24 39 29.72 1007 10 16 N/A
4:51 pm 16:51 Cloudy 54 12.2 32 undefined 43 43 WNW 25 41 29.75 1008 10 16 N/A
5:51 pm 17:51 Cloudy 53 11.7 30 -1.1 41 41 WNW 24 39 29.79 1009 10 16 N/A
6:51 pm 18:51 Cloudy 51 10.6 25 -3.9 36 36 NW 20 31 29.84 1011 10 16 N/A
7:51 pm 19:51 Clear 48 8.9 27 -2.8 44 44 NW 10 17 29.88 1012 10 16 N/A
8:51 pm 20:51 Mostly Clear 45 7.2 27 -2.8 49 49 WNW 10 17 29.92 1013 10 16 N/A
9:51 pm 21:51 Clear 42 5.6 29 -1.7 60 60 WNW 8 13 29.95 1014 10 16 N/A
10:51 pm 22:51 Clear 42 5.6 27 -2.8 55 55 NW 9 15 29.95 1014 10 16 N/A
11:51 pm 23:51 Clear 40 4.4 26 -3.3 58 58 NW 7 11 29.98 1015 10 16 N/A

Powered by AerisWeather